When you browse on this site, cookies collect data to enhance your experience and personalize the content and advertising you see.
Visit our Privacy Policy to learn more. By continuing to use the site, you agree to this use of cookies and data.
  • Em Portugal
  • Lista de países
  • Para 7 dias
  • Temperatura da água
  • Mapas de satélite
  • Mapa do tempo
  • Widgets de tempo
  • user-avatar
    Iniciar Sessão

    Previsão horária em Biskupie

    Hoje, 24 Abril, Quarta-feira

    Tempo Temperatura Precipitação Vento Pressão Humidade
    00:00 +11°C° 0 mm 7 m/s 751 mmHg 56%
    01:00 +10°C° 0 mm 7 m/s 751 mmHg 58%
    02:00 +10°C° 0 mm 6 m/s 751 mmHg 60%
    03:00 +9°C° 0 mm 6 m/s 751 mmHg 61%
    04:00 +9°C° 0 mm 6 m/s 751 mmHg 63%
    05:00 +9°C° 0 mm 7 m/s 751 mmHg 65%
    06:00 +10°C° 0 mm 7 m/s 751 mmHg 66%
    07:00 +10°C° 0 mm 7 m/s 751 mmHg 67%
    08:00 +12°C° 0 mm 7 m/s 751 mmHg 64%
    09:00 +15°C° 0 mm 7 m/s 751 mmHg 61%
    10:00 +17°C° 0 mm 8 m/s 751 mmHg 58%
    11:00 +17°C° 0 mm 7 m/s 751 mmHg 57%
    12:00 +18°C° 0 mm 7 m/s 750 mmHg 57%
    13:00 +20°C° 0 mm 6 m/s 750 mmHg 56%
    14:00 +20°C° 0 mm 6 m/s 750 mmHg 58%
    15:00 +19°C° 0 mm 5 m/s 750 mmHg 60%
    16:00 +19°C° 0 mm 5 m/s 750 mmHg 62%
    17:00 +19°C° 0 mm 5 m/s 750 mmHg 63%
    18:00 +17°C° 0 mm 5 m/s 750 mmHg 63%
    19:00 +17°C° 0 mm 5 m/s 750 mmHg 63%
    20:00 +16°C° 0 mm 5 m/s 750 mmHg 66%
    21:00 +15°C° 0 mm 5 m/s 750 mmHg 69%
    22:00 +15°C° 0 mm 5 m/s 750 mmHg 71%
    23:00 +14°C° 0 mm 5 m/s 750 mmHg 74%

    Amanhã, 25 Abril, Quinta-feira

    Tempo Temperatura Precipitação Vento Pressão Humidade
    00:00 +13°C° 0 mm 4 m/s 750 mmHg 77%
    01:00 +12°C° 0 mm 4 m/s 750 mmHg 79%
    02:00 +12°C° 0 mm 4 m/s 750 mmHg 79%
    03:00 +12°C° 0 mm 4 m/s 750 mmHg 79%
    04:00 +12°C° 0 mm 4 m/s 750 mmHg 79%
    05:00 +13°C° 0 mm 5 m/s 750 mmHg 77%
    06:00 +14°C° 0 mm 5 m/s 750 mmHg 75%
    07:00 +15°C° 0 mm 5 m/s 750 mmHg 73%
    08:00 +17°C° 0 mm 5 m/s 750 mmHg 68%
    09:00 +20°C° 0 mm 5 m/s 750 mmHg 63%
    10:00 +21°C° 0 mm 5 m/s 750 mmHg 58%
    11:00 +22°C° 0 mm 5 m/s 750 mmHg 57%
    12:00 +22°C° 0 mm 5 m/s 750 mmHg 55%
    13:00 +22°C° 0 mm 5 m/s 750 mmHg 54%
    14:00 +22°C° 0 mm 4 m/s 750 mmHg 54%
    15:00 +22°C° 0 mm 4 m/s 750 mmHg 55%
    16:00 +22°C° 0 mm 3 m/s 750 mmHg 55%
    17:00 +20°C° 0 mm 2 m/s 750 mmHg 60%
    18:00 +19°C° 0 mm 2 m/s 749 mmHg 66%
    19:00 +19°C° 0 mm 1 m/s 749 mmHg 71%
    20:00 +18°C° 0 mm 1 m/s 750 mmHg 74%
    21:00 +16°C° 0 mm 1 m/s 750 mmHg 77%
    22:00 +15°C° 0 mm 2 m/s 750 mmHg 81%
    23:00 +15°C° 0 mm 2 m/s 750 mmHg 83%

    Depois de amanhã, 26 Abril, Sexta-feira

    Tempo Temperatura Precipitação Vento Pressão Humidade
    00:00 +15°C° 0 mm 2 m/s 749 mmHg 86%
    01:00 +14°C° 0 mm 2 m/s 749 mmHg 88%
    02:00 +14°C° 0 mm 2 m/s 749 mmHg 89%
    03:00 +14°C° 0 mm 2 m/s 749 mmHg 89%
    04:00 +13°C° 0 mm 2 m/s 749 mmHg 90%
    05:00 +15°C° 0 mm 2 m/s 749 mmHg 84%
    06:00 +16°C° 0 mm 2 m/s 749 mmHg 78%
    07:00 +17°C° 0 mm 2 m/s 748 mmHg 72%
    08:00 +19°C° 0 mm 2 m/s 748 mmHg 66%
    09:00 +21°C° 0 mm 2 m/s 748 mmHg 61%
    10:00 +23°C° 0 mm 2 m/s 748 mmHg 55%
    11:00 +24°C° 0 mm 3 m/s 748 mmHg 52%
    12:00 +25°C° 0 mm 3 m/s 747 mmHg 49%
    13:00 +26°C° 0 mm 3 m/s 747 mmHg 46%
    14:00 +26°C° 0 mm 3 m/s 747 mmHg 47%
    15:00 +25°C° 0 mm 2 m/s 746 mmHg 48%
    16:00 +25°C° 0 mm 2 m/s 746 mmHg 49%
    17:00 +23°C° 0 mm 1 m/s 746 mmHg 53%
    18:00 +22°C° 0 mm 1 m/s 746 mmHg 57%
    19:00 +18°C° 0 mm 0 m/s 746 mmHg 62%
    20:00 +20°C° 0 mm 1 m/s 746 mmHg 63%
    21:00 +19°C° 0 mm 1 m/s 746 mmHg 65%
    22:00 +19°C° 0 mm 1 m/s 746 mmHg 66%
    23:00 +18°C° 0 mm 1 m/s 746 mmHg 69%

    27 Abril, Sábado

    Tempo Temperatura Precipitação Vento Pressão Humidade
    00:00 +18°C° 0 mm 1 m/s 746 mmHg 72%
    01:00 +16°C° 0 mm 1 m/s 745 mmHg 76%
    02:00 +16°C° 0 mm 1 m/s 745 mmHg 78%
    03:00 +15°C° 0 mm 1 m/s 745 mmHg 80%
    04:00 +15°C° 0 mm 1 m/s 745 mmHg 82%
    05:00 +16°C° 0 mm 1 m/s 745 mmHg 81%
    06:00 +16°C° 0 mm 2 m/s 745 mmHg 79%
    07:00 +17°C° 0 mm 2 m/s 745 mmHg 77%
    08:00 +18°C° 0 mm 3 m/s 745 mmHg 75%
    09:00 +19°C° 0 mm 4 m/s 745 mmHg 72%
    10:00 +21°C° 0 mm 4 m/s 745 mmHg 69%
    11:00 +20°C° 0 mm 5 m/s 746 mmHg 71%
    12:00 +19°C° 0 mm 5 m/s 746 mmHg 74%
    13:00 +17°C° 0 mm 6 m/s 746 mmHg 76%
    14:00 +17°C° 0 mm 6 m/s 746 mmHg 76%
    15:00 +16°C° 0 mm 6 m/s 746 mmHg 76%
    16:00 +16°C° 0 mm 7 m/s 746 mmHg 76%
    17:00 +15°C° 0 mm 6 m/s 747 mmHg 76%
    18:00 +13°C° 0 mm 6 m/s 747 mmHg 77%
    19:00 +11°C° 0 mm 6 m/s 748 mmHg 78%
    20:00 +10°C° 0 mm 6 m/s 748 mmHg 79%
    21:00 +9°C° 0 mm 5 m/s 749 mmHg 81%
    22:00 +8°C° 0 mm 5 m/s 749 mmHg 82%
    23:00 +8°C° 0 mm 5 m/s 749 mmHg 81%

    28 Abril, Domingo

    Tempo Temperatura Precipitação Vento Pressão Humidade
    00:00 +8°C° 0 mm 5 m/s 750 mmHg 80%
    01:00 +9°C° 0 mm 5 m/s 750 mmHg 79%
    02:00 +8°C° 0 mm 5 m/s 750 mmHg 80%
    03:00 +8°C° 0 mm 5 m/s 751 mmHg 82%
    04:00 +8°C° 0 mm 5 m/s 751 mmHg 84%
    05:00 +8°C° 0 mm 5 m/s 751 mmHg 83%
    06:00 +8°C° 0 mm 5 m/s 751 mmHg 82%
    07:00 +9°C° 0 mm 5 m/s 752 mmHg 82%
    08:00 +11°C° 0 mm 4 m/s 752 mmHg 79%
    09:00 +11°C° 0 mm 4 m/s 752 mmHg 76%
    10:00 +12°C° 0 mm 4 m/s 753 mmHg 72%
    11:00 +13°C° 0 mm 4 m/s 753 mmHg 69%
    12:00 +14°C° 0 mm 3 m/s 753 mmHg 66%
    13:00 +16°C° 0 mm 3 m/s 753 mmHg 63%
    14:00 +16°C° 0 mm 3 m/s 753 mmHg 63%
    15:00 +15°C° 0 mm 4 m/s 753 mmHg 63%
    16:00 +15°C° 0 mm 4 m/s 753 mmHg 64%
    17:00 +14°C° 0 mm 3 m/s 753 mmHg 67%
    18:00 +13°C° 0 mm 3 m/s 753 mmHg 70%
    19:00 +12°C° 0 mm 3 m/s 754 mmHg 74%
    20:00 +12°C° 0 mm 3 m/s 754 mmHg 76%
    21:00 +11°C° 0 mm 3 m/s 754 mmHg 77%
    22:00 +11°C° 0 mm 3 m/s 754 mmHg 79%
    23:00 +10°C° 0 mm 3 m/s 754 mmHg 81%

    29 Abril, Segunda-feira

    Tempo Temperatura Precipitação Vento Pressão Humidade
    00:00 +10°C° 0 mm 3 m/s 754 mmHg 83%
    01:00 +10°C° 0 mm 3 m/s 754 mmHg 85%
    02:00 +10°C° 0 mm 4 m/s 754 mmHg 86%
    03:00 +10°C° 0 mm 4 m/s 754 mmHg 87%
    04:00 +10°C° 0 mm 4 m/s 753 mmHg 89%
    05:00 +10°C° 0.1 mm 4 m/s 753 mmHg 89%
    06:00 +10°C° 0.1 mm 4 m/s 753 mmHg 89%
    07:00 +10°C° 0.1 mm 5 m/s 753 mmHg 89%
    08:00 +10°C° 0.2 mm 5 m/s 753 mmHg 89%
    09:00 +12°C° 0.2 mm 4 m/s 753 mmHg 88%
    10:00 +12°C° 0.2 mm 4 m/s 753 mmHg 88%
    11:00 +13°C° 0.1 mm 4 m/s 752 mmHg 86%
    12:00 +15°C° 0.1 mm 4 m/s 752 mmHg 85%
    13:00 +17°C° 0.1 mm 3 m/s 752 mmHg 84%
    14:00 +18°C° 0.6 mm 4 m/s 752 mmHg 78%
    15:00 +19°C° 0.6 mm 4 m/s 752 mmHg 72%
    16:00 +20°C° 0.6 mm 4 m/s 751 mmHg 67%
    17:00 +19°C° 0.2 mm 4 m/s 752 mmHg 74%
    18:00 +17°C° 0.2 mm 3 m/s 752 mmHg 81%
    19:00 +16°C° 0.2 mm 3 m/s 752 mmHg 88%
    20:00 +14°C° 0 mm 3 m/s 752 mmHg 89%
    21:00 +13°C° 0 mm 3 m/s 752 mmHg 91%
    22:00 +12°C° 0 mm 3 m/s 752 mmHg 93%
    23:00 +11°C° 0 mm 3 m/s 752 mmHg 93%
    Mostrar mais